******** Week 145 almanac for PRN-1 ******** ID: 1 Health: 0 Eccentricity: 0.01126241684 Time of Applicability(s): 61440 Orbital Inclination(rad): 0.9863939882 Rate of Right Ascen(r/s): -7.988904198e-09 SQRT(A) (m 1/2): 5153.624023 Right Ascen at Week(rad): -1.408753128 Argument of Perigee(rad): 0.8822366931 Mean Anom(rad): 2.592370233 Af0(s): 0.0003602563232 Af1(s/s): -1.091394e-11 week: 145 ******** Week 145 almanac for PRN-2 ******** ID: 2 Health: 0 Eccentricity: 0.02069139481 Time of Applicability(s): 61440 Orbital Inclination(rad): 0.9647384938 Rate of Right Ascen(r/s): -8.148910863e-09 SQRT(A) (m 1/2): 5153.624023 Right Ascen at Week(rad): -1.497447253 Argument of Perigee(rad): -1.456545468 Mean Anom(rad): 2.754079372 Af0(s): -0.0005124985352 Af1(s/s): 0 week: 145 ******** Week 145 almanac for PRN-3 ******** ID: 3 Health: 0 Eccentricity: 0.003867149353 Time of Applicability(s): 61440 Orbital Inclination(rad): 0.9725522085 Rate of Right Ascen(r/s): -7.577458489e-09 SQRT(A) (m 1/2): 5153.659668 Right Ascen at Week(rad): -0.37325992 Argument of Perigee(rad): 0.9750488974 Mean Anom(rad): 1.425644893 Af0(s): -6.406231689e-05 Af1(s/s): -1.455192e-11 week: 145 ******** Week 145 almanac for PRN-4 ******** ID: 4 Health: 0 Eccentricity: 0.001648426056 Time of Applicability(s): 61440 Orbital Inclination(rad): 0.9610353683 Rate of Right Ascen(r/s): -7.714607058e-09 SQRT(A) (m 1/2): 5153.607422 Right Ascen at Week(rad): 0.7074756098 Argument of Perigee(rad): -3.103627379 Mean Anom(rad): -1.870047292 Af0(s): -0.0001537495605 Af1(s/s): 3.637979e-12 week: 145 ******** Week 145 almanac for PRN-5 ******** ID: 5 Health: 0 Eccentricity: 0.005897045135 Time of Applicability(s): 61440 Orbital Inclination(rad): 0.9595313481 Rate of Right Ascen(r/s): -7.726036106e-09 SQRT(A) (m 1/2): 5153.607422 Right Ascen at Week(rad): -0.4132475335 Argument of Perigee(rad): 1.012361407 Mean Anom(rad): -1.043955569 Af0(s): -5.351087646e-05 Af1(s/s): 0 week: 145 ******** Week 145 almanac for PRN-6 ******** ID: 6 Health: 0 Eccentricity: 0.002636432648 Time of Applicability(s): 61440 Orbital Inclination(rad): 0.9857768007 Rate of Right Ascen(r/s): -7.977475151e-09 SQRT(A) (m 1/2): 5153.60498 Right Ascen at Week(rad): -1.417024116 Argument of Perigee(rad): -0.9983578404 Mean Anom(rad): 2.959048567 Af0(s): 0.0001364150513 Af1(s/s): 1.091394e-11 week: 145 ******** Week 145 almanac for PRN-7 ******** ID: 7 Health: 0 Eccentricity: 0.01543951035 Time of Applicability(s): 61440 Orbital Inclination(rad): 0.9505311952 Rate of Right Ascen(r/s): -7.977475151e-09 SQRT(A) (m 1/2): 5153.635742 Right Ascen at Week(rad): 1.727001711 Argument of Perigee(rad): -2.295538209 Mean Anom(rad): 1.930092004 Af0(s): 0.0002389147583 Af1(s/s): 3.637979e-12 week: 145 ******** Week 145 almanac for PRN-8 ******** ID: 8 Health: 0 Eccentricity: 0.007135391235 Time of Applicability(s): 61440 Orbital Inclination(rad): 0.9652298471 Rate of Right Ascen(r/s): -7.874613723e-09 SQRT(A) (m 1/2): 5153.662598 Right Ascen at Week(rad): -2.488352029 Argument of Perigee(rad): 0.08070326857 Mean Anom(rad): -1.393236553 Af0(s): -4.14520874e-05 Af1(s/s): 0 week: 145 ******** Week 145 almanac for PRN-9 ******** ID: 9 Health: 0 Eccentricity: 0.002331733704 Time of Applicability(s): 61440 Orbital Inclination(rad): 0.9540665416 Rate of Right Ascen(r/s): -7.771752296e-09 SQRT(A) (m 1/2): 5153.583496 Right Ascen at Week(rad): 0.654761873 Argument of Perigee(rad): 1.857947719 Mean Anom(rad): -1.059740291 Af0(s): -0.0002826278686 Af1(s/s): 0 week: 145 ******** Week 145 almanac for PRN-10 ******** ID: 10 Health: 0 Eccentricity: 0.007436752319 Time of Applicability(s): 61440 Orbital Inclination(rad): 0.9723904214 Rate of Right Ascen(r/s): -7.566029441e-09 SQRT(A) (m 1/2): 5153.640625 Right Ascen at Week(rad): -0.3760567385 Argument of Perigee(rad): -2.535368391 Mean Anom(rad): 0.5830231792 Af0(s): -0.0002328853638 Af1(s/s): -1.091394e-11 week: 145 ******** Week 145 almanac for PRN-11 ******** ID: 11 Health: 255 Eccentricity: 0.0002956390381 Time of Applicability(s): 61440 Orbital Inclination(rad): 0.9615147373 Rate of Right Ascen(r/s): -8.206056101e-09 SQRT(A) (m 1/2): 5153.708008 Right Ascen at Week(rad): -1.364263191 Argument of Perigee(rad): 2.853853662 Mean Anom(rad): -1.535628245 Af0(s): -3.919106445e-05 Af1(s/s): -3.637979e-11 week: 145 ******** Week 145 almanac for PRN-12 ******** ID: 12 Health: 0 Eccentricity: 0.008585453033 Time of Applicability(s): 61440 Orbital Inclination(rad): 0.9710062435 Rate of Right Ascen(r/s): -7.486026109e-09 SQRT(A) (m 1/2): 5153.577148 Right Ascen at Week(rad): 2.839422408 Argument of Perigee(rad): 1.237859579 Mean Anom(rad): 1.265743874 Af0(s): -0.0001236025879 Af1(s/s): -7.275958e-12 week: 145 ******** Week 145 almanac for PRN-13 ******** ID: 13 Health: 0 Eccentricity: 0.005794048309 Time of Applicability(s): 61440 Orbital Inclination(rad): 0.968423643 Rate of Right Ascen(r/s): -7.646032773e-09 SQRT(A) (m 1/2): 5153.621094 Right Ascen at Week(rad): 0.8071255635 Argument of Perigee(rad): 0.9701559631 Mean Anom(rad): -2.007272285 Af0(s): 0.0001944479736 Af1(s/s): 7.275958e-12 week: 145 ******** Week 145 almanac for PRN-14 ******** ID: 14 Health: 0 Eccentricity: 0.001333236694 Time of Applicability(s): 61440 Orbital Inclination(rad): 0.9543901156 Rate of Right Ascen(r/s): -7.623174678e-09 SQRT(A) (m 1/2): 5153.599609 Right Ascen at Week(rad): 2.808618081 Argument of Perigee(rad): 3.037875929 Mean Anom(rad): 1.309249981 Af0(s): -5.652557373e-05 Af1(s/s): -3.637979e-12 week: 145 ******** Week 145 almanac for PRN-15 ******** ID: 15 Health: 0 Eccentricity: 0.01392269135 Time of Applicability(s): 61440 Orbital Inclination(rad): 0.9299842416 Rate of Right Ascen(r/s): -7.954617056e-09 SQRT(A) (m 1/2): 5153.66748 Right Ascen at Week(rad): 0.5495044257 Argument of Perigee(rad): 1.070341087 Mean Anom(rad): -2.406260089 Af0(s): -7.235273437e-05 Af1(s/s): 3.637979e-12 week: 145 ******** Week 145 almanac for PRN-16 ******** ID: 16 Health: 0 Eccentricity: 0.01265001297 Time of Applicability(s): 61440 Orbital Inclination(rad): 0.9709762829 Rate of Right Ascen(r/s): -7.497455156e-09 SQRT(A) (m 1/2): 5153.547363 Right Ascen at Week(rad): 2.858047392 Argument of Perigee(rad): 0.6978110815 Mean Anom(rad): -0.5901792595 Af0(s): -0.0003610099976 Af1(s/s): -7.275958e-12 week: 145 ******** Week 145 almanac for PRN-17 ******** ID: 17 Health: 0 Eccentricity: 0.01371765137 Time of Applicability(s): 61440 Orbital Inclination(rad): 0.9802580651 Rate of Right Ascen(r/s): -7.760323248e-09 SQRT(A) (m 1/2): 5153.699219 Right Ascen at Week(rad): -2.406907237 Argument of Perigee(rad): -1.507865664 Mean Anom(rad): -1.489935766 Af0(s): 0.0004446678467 Af1(s/s): 3.637979e-12 week: 145 ******** Week 145 almanac for PRN-18 ******** ID: 18 Health: 0 Eccentricity: 0.002087116241 Time of Applicability(s): 61440 Orbital Inclination(rad): 0.9701853241 Rate of Right Ascen(r/s): -8.137481816e-09 SQRT(A) (m 1/2): 5153.577148 Right Ascen at Week(rad): -1.400487009 Argument of Perigee(rad): 3.111241856 Mean Anom(rad): 2.778467644 Af0(s): 0.0002049994141 Af1(s/s): -7.275958e-12 week: 145 ******** Week 145 almanac for PRN-19 ******** ID: 19 Health: 0 Eccentricity: 0.008934020996 Time of Applicability(s): 61440 Orbital Inclination(rad): 0.9789577767 Rate of Right Ascen(r/s): -7.806039438e-09 SQRT(A) (m 1/2): 5153.635742 Right Ascen at Week(rad): -2.361992609 Argument of Perigee(rad): 1.997259465 Mean Anom(rad): 0.9083705426 Af0(s): 8.441152344e-05 Af1(s/s): 3.637979e-12 week: 145 ******** Week 145 almanac for PRN-20 ******** ID: 20 Health: 0 Eccentricity: 0.005288124084 Time of Applicability(s): 61440 Orbital Inclination(rad): 0.9416628688 Rate of Right Ascen(r/s): -7.943188008e-09 SQRT(A) (m 1/2): 5153.680176 Right Ascen at Week(rad): -0.5266868359 Argument of Perigee(rad): 3.103173102 Mean Anom(rad): -2.632338372 Af0(s): 0.0004084914795 Af1(s/s): 0 week: 145 ******** Week 145 almanac for PRN-21 ******** ID: 21 Health: 0 Eccentricity: 0.02453136444 Time of Applicability(s): 61440 Orbital Inclination(rad): 0.9589740817 Rate of Right Ascen(r/s): -8.183198006e-09 SQRT(A) (m 1/2): 5153.541992 Right Ascen at Week(rad): -1.498887982 Argument of Perigee(rad): -1.025458667 Mean Anom(rad): -1.329350897 Af0(s): 0.0001236025879 Af1(s/s): 0 week: 145 ******** Week 145 almanac for PRN-22 ******** ID: 22 Health: 255 Eccentricity: 0.006894111633 Time of Applicability(s): 61440 Orbital Inclination(rad): 0.9384151438 Rate of Right Ascen(r/s): -7.954617056e-09 SQRT(A) (m 1/2): 5153.584473 Right Ascen at Week(rad): -0.4809037262 Argument of Perigee(rad): -0.855509999 Mean Anom(rad): -2.594682065 Af0(s): -0.000328602002 Af1(s/s): 7.275958e-12 week: 145 ******** Week 145 almanac for PRN-23 ******** ID: 23 Health: 0 Eccentricity: 0.001955986023 Time of Applicability(s): 61440 Orbital Inclination(rad): 0.9674169681 Rate of Right Ascen(r/s): -7.634603726e-09 SQRT(A) (m 1/2): 5153.658691 Right Ascen at Week(rad): -0.4007513575 Argument of Perigee(rad): 2.914472493 Mean Anom(rad): 1.932597081 Af0(s): 8.29041748e-06 Af1(s/s): -3.637979e-12 week: 145 ******** Week 145 almanac for PRN-24 ******** ID: 24 Health: 0 Eccentricity: 0.01228046417 Time of Applicability(s): 61440 Orbital Inclination(rad): 0.9339929648 Rate of Right Ascen(r/s): -8.194627053e-09 SQRT(A) (m 1/2): 5153.626953 Right Ascen at Week(rad): 1.644726262 Argument of Perigee(rad): 0.8012944891 Mean Anom(rad): 2.897082259 Af0(s): 0.0002193192261 Af1(s/s): 0 week: 145 ******** Week 145 almanac for PRN-25 ******** ID: 25 Health: 0 Eccentricity: 0.01037454605 Time of Applicability(s): 61440 Orbital Inclination(rad): 0.9583748704 Rate of Right Ascen(r/s): -7.600316584e-09 SQRT(A) (m 1/2): 5153.678711 Right Ascen at Week(rad): 2.763103119 Argument of Perigee(rad): 0.9723520723 Mean Anom(rad): 1.033515437 Af0(s): 0.0002147971802 Af1(s/s): 7.275958e-12 week: 145 ******** Week 145 almanac for PRN-26 ******** ID: 26 Health: 0 Eccentricity: 0.006783008575 Time of Applicability(s): 61440 Orbital Inclination(rad): 0.9391941185 Rate of Right Ascen(r/s): -7.806039438e-09 SQRT(A) (m 1/2): 5153.633789 Right Ascen at Week(rad): 2.716691961 Argument of Perigee(rad): 0.3507771396 Mean Anom(rad): 0.3843816553 Af0(s): 0.0001379223999 Af1(s/s): 3.637979e-12 week: 145 ******** Week 145 almanac for PRN-27 ******** ID: 27 Health: 0 Eccentricity: 0.01002645493 Time of Applicability(s): 61440 Orbital Inclination(rad): 0.9739064259 Rate of Right Ascen(r/s): -7.806039438e-09 SQRT(A) (m 1/2): 5153.606445 Right Ascen at Week(rad): -2.469171652 Argument of Perigee(rad): 0.6300189427 Mean Anom(rad): -1.464656541 Af0(s): 5.652557373e-05 Af1(s/s): 2.182787e-11 week: 145 ******** Week 145 almanac for PRN-29 ******** ID: 29 Health: 0 Eccentricity: 0.001769065857 Time of Applicability(s): 61440 Orbital Inclination(rad): 0.9822414543 Rate of Right Ascen(r/s): -7.783181343e-09 SQRT(A) (m 1/2): 5153.722168 Right Ascen at Week(rad): -2.393957907 Argument of Perigee(rad): 2.291332495 Mean Anom(rad): -1.35878303 Af0(s): -0.0003700540894 Af1(s/s): -3.637979e-12 week: 145 ******** Week 145 almanac for PRN-30 ******** ID: 30 Health: 0 Eccentricity: 0.005423545837 Time of Applicability(s): 61440 Orbital Inclination(rad): 0.9357127011 Rate of Right Ascen(r/s): -8.148910863e-09 SQRT(A) (m 1/2): 5153.521484 Right Ascen at Week(rad): 1.740604181 Argument of Perigee(rad): -2.751470181 Mean Anom(rad): 1.944473448 Af0(s): -0.0004009547363 Af1(s/s): -3.637979e-12 week: 145 ******** Week 145 almanac for PRN-31 ******** ID: 31 Health: 0 Eccentricity: 0.01046133041 Time of Applicability(s): 61440 Orbital Inclination(rad): 0.9547676187 Rate of Right Ascen(r/s): -7.931758961e-09 SQRT(A) (m 1/2): 5153.608887 Right Ascen at Week(rad): 1.744982168 Argument of Perigee(rad): 0.3666614807 Mean Anom(rad): 1.47874999 Af0(s): -0.0001266172852 Af1(s/s): -3.637979e-12 week: 145 ******** Week 145 almanac for PRN-32 ******** ID: 32 Health: 0 Eccentricity: 0.005421638489 Time of Applicability(s): 61440 Orbital Inclination(rad): 0.957925462 Rate of Right Ascen(r/s): -7.691748963e-09 SQRT(A) (m 1/2): 5153.709961 Right Ascen at Week(rad): 0.6658315518 Argument of Perigee(rad): -2.373750257 Mean Anom(rad): -0.783895267 Af0(s): -4.069841309e-05 Af1(s/s): -7.275958e-12 week: 145